Location: Newark
(47.5989°N, 4.6950°E)
Time: 06:02:12
(UTC+00:00)

Envisat - Pass Details

Date: 17 November 2019
Orbit: 764 x 766 km, 98.1° (Epoch: 15 December)

Event Time Altitude Azimuth Distance (km) Brightness Sun altitude
Rises 16:50:51 0° 143° (SE) 3,223 6.0 -8.2°
Reaches altitude 10° 16:53:14 10° 136° (SE) 2,301 5.2 -8.6°
Maximum altitude 16:57:58 41° 68° (ENE) 1,104 3.4 -9.4°
Drops below altitude 10° 17:02:43 10° 359° (N) 2,315 5.3 -10.1°
Sets 17:05:08 0° 353° (N) 3,245 6.2 -10.5°
